Погода Куминская

Погода Куминская : погода сейчас, прогноз погоды и архив. Всё, что Вы хотите узнать о погоде Куминская!

Поиск расширенной информации на нашем сайте:

Полезная информация: погода в петропавловске-камчатском

Другие новости

Новости СМИ2

Главная страница сайта

Новости сайта

03.07.2017

Напоминаем, что на нашем специализированном сайте Метеоцентр.Азия вы можете получить высокодетализированные автоматические прогнозы погоды по пунктам России, СНГ и мира в авиационном формате (включающие направление и скорость ветра, видимость, явления погоды, количество и форму облачности, нижнюю и верхнюю границу облачности).

Рекомендуем: сауны города екатеринбурга

Погода Куминская - сегодня

Время (UTC), дата Ветер
(°,м/с) 
Видим.   Явления Облачность Т
(°С)
Тd
(°С)
f(%) Тe
(°С)
Pmin
(гПа)
dP
(гПа)
Po
(мм)
O2
(г/м3)
Тmin Tmax R s Состояние
почвы
00 23.07.17 тихо ()   10 км  гроза без осадков  8/4 300 м кучево-дожд., средняя, верхняя 
[Cb cap|Ac trans|Ci fib]
+13.6 +12.7 94 +19  1007.9  -0.4  749  285           
03 23.07.17 040 (СВ) 10 км  гроза, ливневой дождь  10/10 300 м кучево-дожд. 
[Cb cap]
+14.2 +13.4 95 +21  1008.5  0.6  749  284  +13.5    19     
06 23.07.17 150 (ЮВ) н/о    н/о 
+16.2 +14.9 92 +27  1007.8  -0.6  749  282           
09 23.07.17 060 (СВ) 10 км  слаб. ливневой дождь{гроза}  10/10 300 м кучево-дожд. 
[Cb cap]
+18.1 +15.7 86 +30  1007.7  749  280           
12 23.07.17 050 (СВ) н/о    н/о 
+20.2 +15.3 73 +29  1006.7  -1  748  277           
15 23.07.17 040 (СВ) 10 км  {ливн. осадки}  8/0 средняя, верхняя 
[Ac trans|Ci fib]
+19.1 +15.1 78 +30  1006.8  -0.1  748  279    +21.1     
18 23.07.17 тихо ()   10 км  местами туман поземный  3/0 средняя 
[As trans]
+14.1 +13.3 95 +20  1006.7  0.1  748  284           
21 23.07.17 тихо ()   50000 м    10/10 300 м кучево-дожд. 
[Cb cap]
+13.4 +12.7 96 +18  1006  -0.8  747  284           
00 24.07.17 тихо ()   10 км  местами туман поземный  4/0 средняя, верхняя 
[Ac trans|Ci fib]
+12.7 +12 96 +17  1006  747  285           
03 24.07.17 350 (С) 10 км    8/0 средняя, верхняя 
[As trans|Ci fib]
+16.3 +15.5 95 +28  1005.7  -0.2  747  281  +12.6         
06 24.07.17 080 (В) н/о    н/о 
+22.3 +14.9 63 +31  1005.1  -0.4  747  275           
09 24.07.17 тихо ()   10 км    6/6 300 м кучево-дожд. 
[Cb cap]
+24.3 +14.5 54 +32  1004.8  -0.2  747  273           
12 24.07.17 170 (Ю) н/о    н/о 
+25.9 +15 51 +35  1004.3  -0.5  746  272           
18 24.07.17 тихо ()   50000 м    4/0 средняя 
[Ac trans]
+16.3 +15.4 94 +26  1004.8  746  281           
21 24.07.17 тихо ()   50000 м  местами туман поземный  ясно 
+13.9 +13.2 96 +20  1004.7  -0.2  746  283           
00 25.07.17 тихо ()   10 км    6/0 средняя, верхняя 
[Ac trans|Ci fib]
+12.6 +11.9 95 +16  1004.3  -0.4  746  285           
03 25.07.17 тихо ()   10 км    9/0 верхняя 
[Ci fib]
+20 +16.9 82 +32  1004  0.1  746  276  +12.3         
06 25.07.17 150 (ЮВ) н/о    н/о 
+25 +15.2 55 +34  1003.2  -0.6  745  272           
09 25.07.17 150 (ЮВ) 10 км  в посл. час ливневой дождь  10/8 300 м кучево-дожд., средняя, верхняя 
[Cb cap|Ac trans|Ci fib]
+22.9 +17.6 72 +37  1001.9  -1.3  744  273           
12 25.07.17 060 (СВ) н/о    н/о 
+22.8 +16.1 66 +34  1001.3  -0.6  744  273           
15 25.07.17 тихо ()   10 км  гроза, ливневой дождь  10/10 300 м кучево-дожд. 
[Cb cap]
+17.3 +16.5 95 +29  1002.4  0.9  745  279    +25.7  26     
18 25.07.17 тихо ()   26000 м  в посл. час ливневой дождь{гроза}  10/10 300 м кучево-дожд. 
[Cb cap]
+16.2 +15.4 95 +26  1001.6  -0.8  744  280           
21 25.07.17 тихо ()   50000 м    10/10 300 м кучево-дожд. 
[Cb cap]
+15.9 +15.2 96 +25  1001.7  744  280           
00 26.07.17 тихо ()   10 км    10/0 средняя 
[Ac und]
+15.9 +15.2 96 +25  1001.8  0.2  744  280           
03 26.07.17 240 (ЮЗ) 10 км    10/10 300 м кучево-дожд. 
[Cb cap]
+16.5 +15.7 95 +28  1002.2  0.4  745  279  +15.5       
Время (UTC), дата Ветер
(°,м/с) 
Видим.   Явления Облачность Т
(°С)
Тd
(°С)
f(%) Тe
(°С)
Pmin
(гПа)
dP
(гПа)
Po
(мм)
O2
(г/м3)
Тmin Tmax R s Состояние
почвы

Для получения пояснительной информации подведите курсор к названию столбца.

ПОГОДА Куминская - архив

Всё, что Вы хотите узнать о погоде Куминская - удобно и подробно!

Выберите нужную дату (начиная с 1 января 2015* года) и нажмите кнопку "Найти".
Будут отображены архивные сводки погоды по пункту Куминская, начиная с указанной даты.


Отображать данные в формате CSV (для использования в таблицах Excel)


Внимание! Наш архив погоды предназначен исключительно для личного некоммерческого использования в познавательных целях. Если Вам необходимы официальные справки о состоянии погоды (для производственных, юридических, коммерческих и т.п. целей), обращайтесь в органы Росгидромета.

*Примечание: данная дата относится к архиву по метеостанциям СССР (Россия, СНГ, Балтия).
Архив по метеостанциям Зарубежной Европы и Азии (кроме Китая) хранится 10 дней, по другим регионам земного шара (Китай, Африка, Америка, Австралия, Океания) - 1 день.

Куминская - район местоположения метеостанции


Название, широта, долгота, высота метеостанции:
Куминская 58.8°ш. 66°д. 64 м над ур. моря [Российская Федерация]

Дополнительная информация

В oтличие oт бoльшинства пoгoдных сайтoв мы публикуем пoдрoбную метеoинфoрмацию в детальнoм прoфессиoнальнoм фoрмате.

Характеристики температуры и влажнoсти вoздуха измеряются на высoте 2 м в тени вдали oт зданий и деревьев.
Скoрoсть ветра измеряется на высoте 10 м (на урoвне рoста челoвека скoрoсть ветра ниже в 1.5-2 раза). Если метеoстанция нахoдится в гoрoде или в лесу, тo скoрoсть ветра занижена на 2-4 м/с пo сравнению с oткрытым местoм. Скoрoсть ветра над акватoриями крупных рек и oзёр, а также на вершинах хoлмoв на 2-5 м/с выше, чем в oбычных услoвиях.
Атмoсфернoе давление в разных тoчках местнoсти мoжет значительнo oтличаться oт давления на метеoстанции, в зависимoсти oт услoвий рельефа (при пoдъёме на 10 м давление пoнижается примернo на 1 мм рт.ст.).